This is the latest recevied weather packets stored in our database for station/object HOWARD. If no packets are shown the sender has not sent any weather packets the latest 10 day(s).
| Time | Temp. | Humidity | Pressure | Rain* | Wind** | Luminosity | Snow |
|---|---|---|---|---|---|---|---|
| 1788234882 | 13.33° C | 29% | 1015 hPa | 0 mm | - | - | - |
| 1788234282 | 13.33° C | 30% | 1014.9 hPa | 0 mm | - | - | - |
| 1788233682 | 13.33° C | 30% | 1015 hPa | 0 mm | - | - | - |
| 1788233082 | 13.89° C | 29% | 1015 hPa | 0 mm | - | - | - |
| 1788232482 | 13.89° C | 30% | 1015 hPa | 0 mm | - | - | - |
| 1788231882 | 13.33° C | 31% | 1014.2 hPa | 0 mm | - | - | - |
| 1788231282 | 13.33° C | 30% | 1014.2 hPa | 0 mm | - | - | - |
| 1788230682 | 13.33° C | 31% | 1014.2 hPa | 0 mm | - | - | - |
| 1788230082 | 13.89° C | 31% | 1014.3 hPa | 0 mm | - | - | - |
| 1788229482 | 13.89° C | 30% | 1014.3 hPa | 0 mm | - | - | - |
| 1788228882 | 14.44° C | 29% | 1014.3 hPa | 0 mm | - | - | - |
| 1788228282 | 15° C | 29% | 1014.4 hPa | 0 mm | - | - | - |
| 1788227682 | 15° C | 29% | 1014.5 hPa | 0 mm | - | - | - |
| 1788227171 | 15° C | 30% | 1014.5 hPa | 0 mm | - | - | - |
| 1788227082 | 15° C | 30% | 1014.5 hPa | 0 mm | - | - | - |
| 1788226482 | 15.56° C | 30% | 1014.6 hPa | 0 mm | - | - | - |
| 1788225882 | 16.11° C | 29% | 1014.7 hPa | 0 mm | - | - | - |
| 1788225282 | 16.11° C | 28% | 1014.7 hPa | 0 mm | - | - | - |
| 1788224717 | 16.67° C | 28% | 1014.7 hPa | 0 mm | - | - | - |
| 1788224682 | 16.67° C | 28% | 1014.7 hPa | 0 mm | - | - | - |
| 1788224162 | 16.11° C | 29% | 1014.9 hPa | 0 mm | - | - | - |
| 1788224082 | 16.11° C | 29% | 1014.9 hPa | 0 mm | - | - | - |
| 1788223482 | 16.11° C | 30% | 1014.9 hPa | 0 mm | - | - | - |
| 1788222882 | 17.22° C | 30% | 1015 hPa | 0 mm | - | - | - |
| 1788222282 | 17.22° C | 27% | 1015.2 hPa | 0 mm | - | - | - |
* Rain latest hour (hover to see other rain measurements)
** Current wind speed in m/s (hover to see current wind gust speed)